CAPE
0 0 0 4 0 0 0 0 0 0 0 0 0 0 0 0 0 19 30 640 1067 1090 1238 1561 1417 1538 1580 1872 2466 2777 3265 3251 1989 2424 2629 2583 1723 1705 1583 1106 922 567 641 1562
1 0 7 0 0 0 0 0 0 0 0 0 0 0 0 0 0 0 0 309 717 1008 1195 1733 1616 1570 1570 2229 2892 3456 4019 3502 1368 923 2114 3492 3284 2234 2022 1689 1496 1390 1003 1803
4 22 0 0 0 0 1 7 0 0 0 0 0 1 0 0 0 0 0 87 347 715 1049 1358 1675 1582 1297 2489 3219 3762 4202 3548 1905 1754 1877 3260 2473 2055 2790 2430 2090 1708 1888 1083
0 4 2 0 0 0 6 0 0 0 0 0 0 58 126 40 57 22 56 139 218 469 550 1285 1511 1473 972 2108 2595 3964 4350 4176 3249 3015 3268 3728 2794 2031 1991 2465 2192 2499 1981 955
1 0 0 0 0 0 0 0 0 0 0 0 0 159 364 173 12 168 206 120 230 222 334 70 1154 1726 1485 1831 1863 2743 4311 4703 4452 4010 3970 3875 3123 2689 2636 2214 2634 2771 2266 1977
0 0 0 0 0 0 0 0 0 0 0 0 28 119 184 31 7 201 371 336 372 242 321 35 15 1971 1934 1841 1560 2190 3972 4691 4690 4624 4479 4355 3805 3299 2712 2703 2922 2477 2010 1618
0 0 0 0 0 0 0 0 0 42 98 17 8 81 114 3 0 147 326 663 552 471 213 355 1073 1130 2360 1705 1785 2391 3634 4326 4550 4616 4520 4428 4562 3450 3137 3327 2697 2352 2169 1838
0 0 0 0 0 0 0 0 10 127 138 130 110 184 193 159 1 399 841 882 893 1040 1224 1362 1399 1407 2023 2224 1700 1900 3841 4373 4469 4290 4414 4819 4741 3991 3688 3597 2772 2160 1896 1901
8 0 0 0 0 0 0 3 0 19 49 122 152 267 59 63 238 212 1238 1155 1468 2135 2356 2275 2247 2092 2076 2142 2940 3266 3611 3981 4328 4193 4506 4614 4616 4714 3999 3172 2838 1505 3698 2960
0 71 10 0 0 0 0 0 81 105 329 325 87 192 0 348 74 191 256 1104 1848 1915 1468 2221 2340 2440 2420 2292 2474 3198 3310 4355 3919 4281 4370 4071 4315 4532 4461 4253 3888 3395 3856 3908
0 2 72 6 2 0 0 0 1 29 44 152 17 45 224 315 179 160 716 987 1705 1831 1752 1482 1435 1676 2069 1812 2059 2029 2527 3347 3843 3484 3824 4321 3581 3559 4126 4195 4605 3981 3630 3789
0 0 25 82 26 0 110 119 74 179 287 122 213 145 252 99 26 113 98 587 1458 1263 1427 1067 1135 1182 1149 1639 2138 1985 2219 2293 2598 3348 4021 3780 3210 3091 3508 3841 3715 3821 3784 1830
11 4 1 46 98 63 137 39 0 0 11 251 77 468 0 6 0 0 43 38 984 1417 1483 1133 1148 1419 2124 2188 2356 1760 2197 2284 2632 3304 3026 3434 3174 3348 3445 3656 3708 3600 1790 2323
0 3 4 46 72 117 58 221 106 37 56 58 51 70 79 20 4 0 0 0 0 1242 1630 1352 1392 1318 1660 1460 1630 1492 1152 1957 2349 3439 3708 4203 3486 3038 3201 3463 3421 3315 3274 3199
24 40 53 93 74 22 96 111 41 100 74 54 32 2 2 90 12 2 0 0 62 210 955 848 752 575 804 957 1092 533 541 1204 2030 2966 2768 3122 3689 3586 3455 3695 3532 2322 2544 2916
76 156 89 34 5 47 29 16 11 14 0 2 13 40 103 33 17 13 107 70 4 263 692 463 572 613 500 608 1133 583 863 545 1439 1885 2293 2756 2564 2592 2755 2925 2888 2711 1715 1223
104 98 152 83 25 10 14 24 2 19 0 0 0 0 12 41 70 108 172 152 60 175 354 430 727 692 835 535 1287 1653 1514 731 964 1677 1851 2051 2492 2550 2964 2934 2912 3090 2455 2444
3 2 0 0 2 0 0 18 0 0 0 0 0 0 43 26 36 2 0 171 188 263 498 628 464 383 253 148 112 820 710 1629 1737 1887 1828 2063 2145 2204 2290 2270 2423 3186 2928 3376
0 0 0 11 0 2 3 2 0 0 0 0 0 1 0 0 0 0 67 132 175 141 119 117 119 103 408 243 248 792 1049 1280 1439 1599 1833 2023 1965 1943 2164 1875 1782 1918 2465 2503
0 0 0 0 0 0 36 0 0 0 0 0 0 0 0 0 0 14 4 0 0 0 4 10 9 7 95 514 519 829 1191 1580 1476 1838 2105 2210 2039 1821 1646 1748 1814 1526 1623 1621
0 4 0 0 0 8 1 0 0 0 5 0 0 0 0 0 0 0 0 0 0 0 2 20 70 105 336 581 781 1036 1293 1579 1803 1948 1888 1955 1958 1922 1818 1659 1546 1422 1258 1130
0 0 0 19 10 39 0 0 15 0 0 0 0 0 0 0 0 0 4 23 28 44 152 209 282 475 613 605 885 1325 1479 1849 1943 1952 1932 1766 1656 1463 802 1252 1383 1361 1105 780
0 0 14 0 2 0 0 0 0 0 0 0 0 0 0 0 3 11 43 100 177 290 419 570 561 463 580 701 1143 917 880 1294 1342 1371 1276 1376 1284 1041 1244 1116 1148 978 846 658
6 0 0 0 0 0 0 0 0 0 0 0 0 0 0 8 33 49 35 26 47 198 300 323 400 618 391 712 995 1039 934 732 998 768 656 902 968 724 896 843 865 754 669 517
0 0 0 0 0 0 0 0 0 0 0 0 3 15 8 14 28 34 42 67 45 43 37 67 65 75 170 385 710 891 964 976 93 581 773 621 760 571 363 631 667 698 652 439
0 0 0 0 0 0 0 0 0 0 0 12 3 13 22 37 46 8 3 38 54 52 121 179 231 272 404 438 658 752 891 989 928 997 955 740 619 625 357 89 193 160 28 39
CIN
0 0 -2 -18 0 0 0 0 0 0 0 0 0 0 0 0 0 -4 -20 -4 -9 -1 -2 -4 -9 -2 0 -4 -10 -9 -12 -63 -103 -33 -2 -6 -52 -24 -17 -49 -74 -90 -68 -13
0 0 -13 0 0 0 0 0 0 0 0 0 0 0 0 0 0 0 0 -2 -2 -3 -6 -5 -16 -2 -12 -3 -12 -13 -12 -44 -148 -163 -35 -3 -18 -34 -25 -24 -26 -22 -42 -17
-1 -2 0 0 0 0 0 -1 0 0 0 0 0 -1 0 0 0 0 0 -8 -2 -2 -3 -14 -23 -16 -22 -7 -10 -21 -16 -39 -109 -92 -61 -10 -34 -34 -5 -5 -1 -18 -5 -68
0 -5 0 0 0 0 0 0 0 0 0 0 0 -10 -2 -156 -55 -21 -10 -7 -5 -6 -7 -8 -9 -20 -68 -15 -4 -10 -15 -12 -36 -25 -2 -2 -15 -20 -35 -7 -6 -2 -12 -64
-2 0 0 0 0 0 0 0 0 0 0 0 0 -4 -70 -285 -326 -98 -2 -5 -3 -15 -1 -121 -13 -9 -8 -19 -46 -26 -4 -3 -3 -1 -3 -10 -13 -35 -26 -26 -11 -9 -8 -14
0 0 0 0 0 0 0 0 0 0 0 0 -3 -4 -258 -582 -174 -251 -6 -1 -5 -4 -28 -789 -230 -7 -6 -10 -66 -61 -11 -1 -1 -1 -1 -3 -3 -25 -23 -18 -7 -5 -26 -23
0 0 0 0 0 0 0 0 -1 -1 -3 -12 -53 -7 -144 -237 0 -147 0 -2 -7 -2 -11 -3 -5 -7 -11 -44 -41 -59 -34 -13 -2 0 0 -2 0 -13 -22 -7 -3 -12 -14 -31
0 0 0 0 0 0 0 0 -1 -47 -47 -28 -4 -1 -9 -183 -20 -3 -1 -9 -1 -3 -5 -8 -12 -5 -10 -14 -88 -99 -53 -5 -1 -1 -1 -2 -1 -2 -3 -8 -6 -13 -23 -50
-3 0 0 0 0 0 0 0 -1 -4 -48 -7 -4 -84 -2 -3 0 -3 -6 -5 -1 -3 -9 -21 -23 -15 -5 -11 -2 -4 -73 -46 -10 -5 -2 -2 -4 -2 -4 -19 -41 -329 -6 -10
0 -1 -9 0 0 0 0 0 -3 -2 -5 -16 -152 -177 -1 -6 -11 -4 -5 -4 -55 -280 -73 -16 -55 -45 -28 -8 0 -2 -1 -9 -3 0 -3 -1 -1 -5 -4 -10 -19 -18 -19 -7
0 -3 -8 -11 -28 0 0 0 -6 -3 -13 -20 -127 -151 -21 -15 -22 -22 -6 -13 -38 -97 -34 -57 -86 -91 -45 -25 -8 -3 -3 -1 -5 -9 -4 -4 -3 -5 -2 -1 -3 -14 -11 -7
0 0 -1 -1 -3 0 -9 -5 -10 -4 -17 -8 -16 -40 -5 -25 -47 -76 -100 -14 -11 -13 -2 -15 -55 -97 -96 -41 -17 -20 -22 -13 -14 -11 -4 -15 -40 -36 -5 -8 -3 -2 -3 -72
-70 -11 -8 -19 -8 -79 -11 -4 0 0 -2 -2 -3 -19 0 -31 0 0 -200 -137 -22 -14 -7 -55 -8 -4 -2 -3 -8 -27 -6 -12 -10 -2 -1 -2 -26 -46 -16 -9 -5 -9 -96 -23
0 -26 -5 -3 -20 -59 -72 -15 -2 0 -2 -4 -7 -40 -54 -5 -19 0 0 0 0 -13 -30 -40 -40 -48 -16 -30 -18 -29 -61 -25 -8 -1 -12 -9 -21 -25 -4 -3 -5 -7 -5 0
-71 -33 -2 -2 -4 -83 -6 -39 -29 -8 -3 -6 -5 -9 -5 -59 -129 -76 0 0 -58 -43 -5 -11 -42 -60 -43 -45 -14 -95 -100 -50 -6 -4 -19 -18 -3 -1 -1 -1 -3 -55 -39 -18
-10 -1 -1 -9 -46 -9 -2 -1 0 -1 -5 -1 -2 -2 -63 -165 -192 -204 -145 -180 -69 -8 -3 -10 -16 -19 -6 -1 -7 -31 -13 -73 -25 -10 -4 -1 0 0 0 0 0 -31 -91 -141
-7 -2 -1 -8 -22 -14 -11 -20 -3 -3 0 0 0 0 -110 -73 -92 -113 -95 -78 -111 -35 -5 -1 -1 -1 -1 -2 -2 -4 -2 -36 -46 -27 -12 -7 -2 -2 -2 -1 0 -9 -51 -39
-1 -1 0 0 0 0 0 -4 0 0 0 0 0 0 -78 -102 -109 -68 0 -25 -55 -18 -2 -3 -1 -6 -12 -2 -8 -22 -17 -3 -4 -7 -17 -3 -4 -2 -4 -12 -8 -2 -5 -2
0 0 0 0 0 -1 -1 -55 0 0 0 0 0 -104 0 0 0 0 -53 -30 -16 -16 -9 -6 -1 -1 -9 -12 -16 -12 -5 -4 -7 -6 -6 -8 -8 -11 -2 -6 -16 -28 -5 -5
0 0 0 0 0 0 -31 0 0 0 0 0 0 0 0 0 0 -1 -19 0 0 0 -16 -6 -3 -5 -4 -9 -5 -11 -9 -8 -10 -6 -4 -5 -5 -5 -6 -5 -8 -11 -13 -9
0 -3 0 0 0 -5 -11 0 0 0 -75 0 0 0 0 0 0 0 0 0 0 0 -1 -2 -4 -5 -3 -3 -4 -6 -10 -12 -10 -7 -5 -4 -3 -4 -5 -7 -4 -5 -12 -24
0 0 0 0 0 -14 0 0 -136 0 0 0 0 0 0 0 0 0 -1 -1 0 -2 -1 -1 -2 -1 -1 -4 -9 -8 -8 -9 -11 -9 -6 -5 -5 -2 -1 -10 -9 -7 -10 -30
0 0 -37 0 -4 0 0 0 0 0 0 0 0 0 0 0 0 0 0 -30 -4 -1 0 0 -1 -10 -31 -29 -20 -28 -47 -48 -39 -27 -9 -6 -11 -7 -3 -4 -2 -1 -4 -2
-15 0 0 0 0 0 0 0 0 0 0 0 0 0 0 -1 -1 -9 -33 -52 -95 -27 -30 -28 -28 -13 -27 -18 -7 -10 -13 -27 -9 -11 -41 -18 -10 -8 -7 -6 0 0 0 0
-3 0 0 0 0 0 0 0 0 0 0 0 -2 -6 -15 -19 -17 -15 -18 -54 -37 -40 -34 -38 -52 -38 -16 -10 -4 -1 -5 -10 -62 -33 -3 -4 -7 -9 -9 -3 -1 -1 -3 0
0 0 0 0 0 0 0 0 0 0 0 -4 -12 -18 -27 -8 -2 -13 -7 -24 -1 -10 0 0 -7 -2 0 -1 0 0 -1 -1 -2 -1 0 0 0 -3 -18 -47 -10 -24 -142 -157
Wind_Speed
16 14 11 3 9 8 6 7 9 3 3 2 5 10 10 7 7 13 9 16 17 16 15 18 16 16 15 14 14 12 10 11 4 4 6 5 7 8 8 7 7 7 6 7
15 11 5 7 4 5 7 9 4 4 2 7 10 11 4 3 2 2 6 12 15 17 18 16 16 15 13 12 13 13 11 9 5 3 3 3 4 4 5 5 6 8 7 7
16 9 9 1 3 10 14 8 10 6 11 14 11 7 7 5 6 4 6 8 13 15 19 18 17 15 13 12 13 12 12 11 8 7 5 3 2 1 4 5 6 9 9 8
15 16 6 4 8 9 10 9 10 9 13 12 13 3 2 19 13 7 5 9 13 15 13 19 20 17 15 13 11 12 13 13 10 9 7 6 4 5 5 6 7 8 9 10
11 13 11 3 11 12 11 11 7 11 10 16 12 10 10 18 23 20 5 5 14 13 15 28 10 20 18 16 12 10 10 12 11 11 9 6 6 6 7 6 4 6 9 11
15 7 6 9 10 11 7 11 15 16 12 11 4 9 5 7 26 23 4 6 4 10 11 26 37 19 15 16 14 11 11 9 10 12 11 8 9 8 3 7 5 6 7 8
13 14 12 6 11 11 12 15 10 7 10 4 11 2 13 22 34 27 1 9 6 6 3 4 13 14 13 18 15 13 13 11 9 9 10 11 10 8 6 5 6 8 8 8
13 14 17 12 14 11 15 16 9 4 7 3 12 9 14 24 27 6 12 9 7 8 12 14 11 7 11 14 12 12 16 13 12 10 9 8 10 7 8 8 9 11 8 10
12 6 12 2 12 8 16 16 6 11 23 7 8 10 11 10 13 9 14 11 11 19 17 16 13 10 8 6 4 10 14 11 11 12 9 9 8 9 8 10 10 9 4 1
17 2 6 8 6 12 16 12 10 7 4 7 5 8 16 9 7 9 5 11 20 23 22 8 8 10 7 3 5 7 4 7 5 6 9 8 8 9 8 7 6 7 5 3
13 12 6 4 9 12 9 11 12 9 7 4 6 7 18 6 3 5 11 7 18 19 16 6 4 4 7 8 8 4 6 7 10 10 9 8 7 6 9 8 7 6 6 5
10 14 8 13 12 13 7 7 6 2 9 3 9 6 12 8 6 6 4 10 13 6 9 8 10 9 8 7 6 8 7 6 8 7 1 8 9 9 8 7 8 4 5 2
9 7 9 14 8 18 12 12 12 15 13 11 7 11 4 6 3 8 9 11 8 6 6 8 4 4 7 8 6 6 5 5 5 7 7 7 9 9 6 6 6 4 4 4
4 13 15 13 2 9 7 22 14 13 8 11 11 6 10 7 13 10 8 7 7 5 2 3 11 10 9 3 5 4 5 7 7 7 6 5 5 5 3 3 6 6 6 5
6 12 16 17 3 7 14 18 15 16 14 11 14 17 13 14 12 8 5 3 3 6 7 7 12 11 8 6 4 1 3 4 7 6 7 6 6 4 3 4 5 4 2 5
11 12 14 16 19 19 13 16 18 12 14 14 15 11 13 13 9 8 7 8 6 2 3 0 2 4 4 4 5 3 3 2 3 6 7 5 3 3 3 3 2 4 5 4
13 13 10 14 20 20 16 13 12 10 7 13 11 11 9 7 7 6 6 3 4 5 3 5 5 6 3 5 6 4 4 1 2 5 6 6 5 5 5 5 4 3 6 6
10 8 8 11 13 15 15 5 5 5 6 8 10 7 11 9 9 9 9 6 6 4 4 6 5 8 10 11 10 7 6 4 4 6 7 6 6 6 5 6 7 6 5 6
9 8 10 9 12 14 17 15 12 9 9 16 11 11 11 6 6 8 11 12 9 9 9 8 9 10 9 9 9 8 8 8 7 8 7 7 7 6 7 8 8 8 7 7
2 8 7 9 13 13 11 10 9 5 0 12 11 11 12 11 8 5 14 11 12 13 12 12 13 13 12 9 10 9 9 7 8 8 8 7 8 9 10 10 9 9 9 9
7 2 8 9 7 3 11 9 9 6 7 8 10 10 11 9 11 15 18 17 16 14 15 14 13 13 13 12 12 12 11 10 9 8 8 8 8 10 10 11 11 10 12 11
4 6 9 8 9 1 10 6 8 6 8 12 13 13 14 14 16 17 17 15 15 15 16 16 14 12 12 13 12 12 11 10 9 9 9 9 9 9 10 12 11 12 12 14
2 3 5 6 5 6 10 10 8 9 9 11 13 12 14 16 17 18 16 15 14 16 14 13 13 12 9 10 9 10 10 8 8 9 11 10 10 12 10 12 12 11 12 12
8 6 2 5 8 7 8 8 11 12 12 14 15 16 16 18 19 21 18 16 14 15 15 15 15 14 12 10 9 10 11 12 13 13 9 10 10 12 12 11 11 11 12 12
6 3 3 5 10 7 8 11 12 12 12 13 14 17 19 20 20 19 17 15 13 12 13 12 13 14 15 12 14 13 13 12 10 11 14 12 10 12 12 12 11 11 12 12
6 7 4 7 9 5 8 10 11 12 13 15 16 16 13 12 16 19 16 12 15 14 16 16 16 16 15 15 15 15 14 14 13 12 11 10 9 8 10 10 12 15 18 19
Wind_Direction
210 249 243 354 3 16 338 299 327 290 2 271 259 292 278 225 226 173 180 168 171 180 179 170 193 181 184 168 163 172 165 127 123 146 169 201 167 181 194 203 185 199 219 166
223 248 279 59 43 326 296 273 278 28 357 244 238 238 281 324 247 233 203 173 176 178 168 174 177 179 191 167 164 168 153 143 156 147 233 183 164 206 197 187 175 199 219 163
245 200 70 301 269 251 257 309 45 321 290 257 252 225 149 112 210 207 242 190 183 179 175 175 174 184 183 168 163 166 158 164 182 209 206 207 140 68 215 180 192 208 204 187
237 275 144 304 252 276 299 38 329 308 300 303 198 137 319 14 350 153 165 191 177 185 196 170 173 178 184 169 176 167 171 167 181 198 217 198 192 175 197 208 197 189 180 189
233 231 281 223 271 285 313 339 309 284 273 277 231 135 13 43 339 299 117 29 188 189 199 22 229 174 183 155 170 176 168 170 184 190 212 202 213 213 184 208 188 186 186 197
279 311 259 279 231 259 291 281 271 257 245 261 307 131 12 85 243 272 145 201 36 334 109 144 233 164 171 155 147 163 167 186 193 187 200 214 218 243 235 188 172 194 205 211
226 251 251 231 278 271 251 255 261 258 254 12 285 71 170 196 222 246 67 60 42 310 28 84 138 153 151 138 152 151 164 174 191 213 208 201 220 224 239 203 190 201 212 209
215 216 203 209 228 267 271 274 293 17 314 209 291 135 167 201 208 98 106 82 71 52 41 29 46 113 142 150 168 158 161 173 178 189 216 212 213 214 218 201 232 204 212 212
301 146 171 103 213 230 246 250 271 237 219 195 15 3 114 123 110 115 97 88 70 63 47 20 9 21 62 143 133 135 162 171 181 193 198 212 222 224 226 235 229 265 190 213
285 213 181 147 231 251 270 314 295 307 21 360 73 42 252 43 49 74 66 97 80 74 2 355 4 12 30 85 136 114 154 161 169 229 200 208 226 222 240 243 269 292 331 302
268 288 158 244 200 241 197 240 243 307 295 145 221 216 262 151 67 29 92 87 123 141 164 125 103 54 17 40 36 66 161 186 188 204 218 200 203 234 237 236 229 225 249 243
247 286 294 218 216 215 220 283 259 279 296 327 323 83 43 26 96 96 349 66 62 36 116 166 158 152 116 101 40 50 10 5 340 336 287 195 212 231 236 230 247 224 225 273
351 232 260 256 201 -0 334 305 280 278 274 302 267 121 329 217 115 47 38 30 77 57 21 26 279 88 83 85 58 15 37 20 328 314 284 242 217 210 238 272 281 261 233 245
318 294 306 302 22 150 234 295 307 296 290 305 311 149 174 87 84 77 61 33 345 111 95 342 119 152 72 40 48 16 38 358 9 342 35 35 23 58 10 271 252 250 242 228
254 260 276 293 328 17 194 202 254 250 293 299 317 319 348 69 71 74 70 33 45 347 61 25 5 7 15 50 351 13 16 37 357 353 37 23 35 15 325 287 278 84 175 234
237 259 279 285 286 285 288 285 288 251 291 302 299 325 63 74 77 58 53 6 354 354 79 61 239 265 275 198 201 182 261 358 359 333 344 356 351 337 330 315 336 176 215 246
311 312 326 300 312 315 304 303 341 334 359 355 341 15 49 48 58 59 24 350 314 341 303 257 320 316 305 310 279 231 190 240 305 321 310 311 324 320 311 303 298 232 227 245
297 297 295 284 286 275 281 306 20 354 340 350 334 29 57 29 0 345 333 229 245 279 302 343 318 286 284 280 332 349 324 303 258 239 261 273 281 280 277 295 294 282 288 274
349 308 286 285 271 279 281 38 24 29 32 26 0 10 11 11 351 308 41 25 10 348 331 301 291 302 317 311 298 284 279 271 261 256 257 256 265 267 268 263 272 279 280 271
185 313 288 274 286 284 66 60 14 348 149 29 14 11 7 359 308 277 356 337 322 310 307 306 304 301 298 295 293 289 285 282 281 292 281 266 264 262 266 272 265 268 270 270
283 211 273 264 241 150 24 359 317 267 45 354 14 353 337 323 319 317 314 317 320 318 310 306 303 294 289 284 277 269 266 259 256 253 252 260 272 276 271 268 268 264 266 266
303 276 287 291 258 160 10 40 27 14 355 349 335 332 326 318 315 316 315 310 302 298 297 295 291 286 286 286 289 286 282 282 268 258 253 254 257 261 269 272 263 259 258 263
243 11 358 12 29 120 52 36 15 358 344 340 330 320 318 316 312 306 300 300 301 298 300 309 317 325 343 334 322 298 287 280 269 263 265 264 265 265 259 262 269 268 260 262
125 62 317 352 68 30 40 30 22 3 347 336 328 322 309 306 323 344 354 342 332 328 327 328 326 320 309 301 293 294 296 289 277 268 252 257 257 259 257 256 253 255 253 254
79 177 127 272 49 14 53 16 355 332 320 313 326 355 347 334 330 329 324 322 316 311 310 311 310 300 295 297 292 285 283 283 279 283 282 261 251 249 255 253 254 253 259 256
42 45 13 55 58 14 354 343 328 328 331 2 345 335 321 320 347 345 329 325 328 327 313 308 307 309 304 305 297 296 293 282 275 268 260 257 255 255 259 256 257 234 236 255